SWR868L LYBE-LSZH

Flight info

Callsign SWR868L
Flight time 1h 24m
Altitude 38000
Route TUVAR DCT ADULA DCT NASSY DCT BEDOX DCT NAKUM DCT ERKIR DCT KPT L856 NEGRA
Aircraft A320/M-SDE2E3FGIRWXY/L

Departure

Time 2026-05-01 12:48
Airport Belgrade Nikola Tesla Airport (LYBE)

Arrival

Time 2026-05-01 14:12
Airport Zürich Airport (LSZH)
Time Latitude Longitude Altitude Speed Heading
2026-05-01 11:51 44.81895 20.29237 328 ft 0 kts 303°
2026-05-01 12:37 44.81894 20.29239 328 ft 2 kts 302°
2026-05-01 12:38 44.81890 20.29259 325 ft 4 kts 282°
2026-05-01 12:38 44.81883 20.29295 324 ft 4 kts 299°
2026-05-01 12:38 44.81868 20.29318 325 ft 4 kts
2026-05-01 12:38 44.81858 20.29314 325 ft 1 kts 31°
2026-05-01 12:39 44.81856 20.29313 324 ft 0 kts 31°
2026-05-01 12:41 44.81858 20.29314 325 ft 2 kts 31°
2026-05-01 12:42 44.81882 20.29334 328 ft 7 kts 31°
2026-05-01 12:42 44.81936 20.29381 328 ft 11 kts 32°
2026-05-01 12:42 44.82007 20.29444 326 ft 13 kts 32°
2026-05-01 12:42 44.82091 20.29518 328 ft 15 kts 32°
2026-05-01 12:43 44.82105 20.29615 327 ft 12 kts 120°
2026-05-01 12:43 44.82058 20.29723 327 ft 13 kts 122°
2026-05-01 12:43 44.82006 20.29841 328 ft 15 kts 122°
2026-05-01 12:43 44.81948 20.29972 328 ft 17 kts 122°
2026-05-01 12:44 44.81882 20.30117 329 ft 19 kts 122°
2026-05-01 12:44 44.81811 20.30279 329 ft 20 kts 121°
2026-05-01 12:44 44.81651 20.30646 331 ft 24 kts 121°
2026-05-01 12:45 44.81468 20.31055 334 ft 26 kts 122°
2026-05-01 12:45 44.81368 20.31281 335 ft 27 kts 122°
2026-05-01 12:45 44.81267 20.31510 336 ft 28 kts 121°
2026-05-01 12:46 44.81163 20.31743 336 ft 29 kts 122°
2026-05-01 12:46 44.81054 20.31982 335 ft 29 kts 121°
2026-05-01 12:46 44.80994 20.32134 339 ft 12 kts 109°
2026-05-01 12:46 44.81018 20.32251 335 ft 14 kts 45°
2026-05-01 12:47 44.81093 20.32298 339 ft 11 kts 15°
2026-05-01 12:47 44.81175 20.32292 338 ft 13 kts 338°
2026-05-01 12:47 44.81261 20.32229 338 ft 19 kts 320°
2026-05-01 12:47 44.81425 20.31873 339 ft 77 kts 302°
2026-05-01 12:48 44.81831 20.30956 334 ft 141 kts 302°
2026-05-01 12:48 44.82409 20.29623 646 ft 163 kts 303°
2026-05-01 12:48 44.82996 20.28279 1524 ft 160 kts 304°
2026-05-01 12:48 44.83632 20.26868 1983 ft 182 kts 306°
2026-05-01 12:49 44.84348 20.25283 2444 ft 202 kts 303°
2026-05-01 12:49 44.85137 20.23519 2935 ft 226 kts 304°
2026-05-01 12:49 44.85986 20.21607 3754 ft 231 kts 304°
2026-05-01 12:49 44.86839 20.19674 4722 ft 234 kts 304°
2026-05-01 12:50 44.87710 20.17700 5591 ft 239 kts 304°
2026-05-01 12:50 44.88599 20.15689 6524 ft 244 kts 305°
2026-05-01 12:50 44.89501 20.13651 7428 ft 246 kts 305°
2026-05-01 12:50 44.90419 20.11575 8260 ft 253 kts 306°
2026-05-01 12:51 44.91351 20.09454 9152 ft 257 kts 306°
2026-05-01 12:51 44.92302 20.07291 10024 ft 262 kts 306°
2026-05-01 12:51 44.94248 20.02852 11632 ft 270 kts 307°
2026-05-01 12:52 44.95231 20.00609 12420 ft 274 kts 307°
2026-05-01 12:52 44.97260 19.95976 14032 ft 281 kts 307°
2026-05-01 12:52 44.98294 19.93606 14756 ft 285 kts 307°
2026-05-01 12:53 45.00321 19.88703 16160 ft 296 kts 298°
2026-05-01 12:53 45.00946 19.85815 16467 ft 321 kts 288°
2026-05-01 12:53 45.01436 19.82679 16954 ft 331 kts 288°
2026-05-01 12:54 45.01926 19.79466 17606 ft 337 kts 288°
2026-05-01 12:54 45.02910 19.72906 18910 ft 346 kts 288°
2026-05-01 12:54 45.03413 19.69559 19498 ft 350 kts 288°
2026-05-01 12:55 45.04446 19.62764 20669 ft 357 kts 289°
2026-05-01 12:55 45.04973 19.59312 21273 ft 361 kts 289°
2026-05-01 12:55 45.05503 19.55824 21858 ft 365 kts 289°
2026-05-01 12:56 45.06037 19.52302 22438 ft 368 kts 289°
2026-05-01 12:56 45.06579 19.48733 22955 ft 373 kts 289°
2026-05-01 12:56 45.07128 19.45110 23476 ft 378 kts 289°
2026-05-01 12:56 45.07672 19.41495 23999 ft 383 kts 289°
2026-05-01 12:57 45.08227 19.37789 24459 ft 387 kts 290°
2026-05-01 12:57 45.09347 19.30269 25369 ft 394 kts 290°
2026-05-01 12:57 45.09915 19.26450 25816 ft 398 kts 290°
2026-05-01 12:58 45.10487 19.22598 26270 ft 402 kts 290°
2026-05-01 12:58 45.11063 19.18704 26717 ft 406 kts 290°
2026-05-01 12:58 45.11640 19.14772 27163 ft 410 kts 290°
2026-05-01 12:59 45.13006 19.06909 28033 ft 408 kts 301°
2026-05-01 12:59 45.14166 19.03231 28180 ft 414 kts 306°
2026-05-01 12:59 45.16722 18.95670 28458 ft 436 kts 305°
2026-05-01 13:00 45.19374 18.87716 28733 ft 455 kts 304°
2026-05-01 13:00 45.20725 18.83618 28898 ft 462 kts 304°
2026-05-01 13:01 45.23457 18.75271 29446 ft 470 kts 304°
2026-05-01 13:01 45.24812 18.71117 29753 ft 473 kts 304°
2026-05-01 13:01 45.27590 18.62605 30371 ft 478 kts 304°
2026-05-01 13:02 45.28996 18.58311 30633 ft 480 kts 304°
2026-05-01 13:07 45.59004 17.71618 36710 ft 462 kts 304°
2026-05-01 13:07 45.60493 17.67560 36941 ft 461 kts 304°
2026-05-01 13:07 45.61983 17.63501 37188 ft 460 kts 304°
2026-05-01 13:08 45.63469 17.59458 37434 ft 459 kts 304°
2026-05-01 13:08 45.64954 17.55428 37657 ft 458 kts 304°
2026-05-01 13:08 45.66440 17.51402 37881 ft 457 kts 304°
2026-05-01 13:08 45.67919 17.47383 38086 ft 456 kts 304°
2026-05-01 13:09 45.69393 17.43369 38293 ft 456 kts 304°
2026-05-01 13:09 45.72334 17.35336 38349 ft 454 kts 304°
2026-05-01 13:10 45.75265 17.27317 38353 ft 454 kts 304°
2026-05-01 13:10 45.78190 17.19304 38353 ft 454 kts 304°
2026-05-01 13:11 45.81085 17.11336 38352 ft 453 kts 304°
2026-05-01 13:11 45.83987 17.03307 38352 ft 453 kts 303°
2026-05-01 13:12 45.86881 16.95263 38360 ft 454 kts 303°
2026-05-01 13:12 45.89779 16.87200 38362 ft 454 kts 303°
2026-05-01 13:13 45.92675 16.79137 38330 ft 454 kts 304°
2026-05-01 13:13 45.95559 16.71076 38363 ft 453 kts 304°
2026-05-01 13:14 45.98434 16.63005 38372 ft 453 kts 304°
2026-05-01 13:14 46.01296 16.54944 38369 ft 452 kts 304°
2026-05-01 13:15 46.04162 16.46883 38362 ft 452 kts 304°
2026-05-01 13:15 46.07015 16.38808 38357 ft 452 kts 303°
2026-05-01 13:16 46.09851 16.30739 38367 ft 451 kts 303°
2026-05-01 13:16 46.12664 16.22712 38374 ft 451 kts 303°
2026-05-01 13:17 46.18313 16.06552 38356 ft 451 kts 303°
2026-05-01 13:18 46.22535 15.94421 38375 ft 450 kts 303°
2026-05-01 13:18 46.25338 15.86330 38377 ft 450 kts 303°
2026-05-01 13:19 46.28098 15.78201 38374 ft 451 kts 302°
2026-05-01 13:20 46.32019 15.65813 38374 ft 452 kts 301°
2026-05-01 13:20 46.34611 15.57540 38377 ft 451 kts 301°
2026-05-01 13:21 46.38527 15.45142 38372 ft 451 kts 301°
2026-05-01 13:21 46.41117 15.36944 38356 ft 450 kts 301°
2026-05-01 13:22 46.43721 15.28674 38370 ft 451 kts 301°
2026-05-01 13:22 46.46314 15.20398 38359 ft 451 kts 301°
2026-05-01 13:23 46.48891 15.12105 38361 ft 451 kts 301°
2026-05-01 13:23 46.51468 15.03803 38327 ft 450 kts 300°
2026-05-01 13:24 46.54048 14.95512 38350 ft 450 kts 300°
2026-05-01 13:25 46.57890 14.83069 38360 ft 450 kts 300°
2026-05-01 13:25 46.60436 14.74763 38367 ft 449 kts 300°
2026-05-01 13:26 46.62987 14.66457 38351 ft 449 kts 300°
2026-05-01 13:26 46.65517 14.58210 38361 ft 449 kts 300°
2026-05-01 13:27 46.68045 14.49894 38361 ft 449 kts 300°
2026-05-01 13:27 46.71827 14.37402 38372 ft 449 kts 300°
2026-05-01 13:28 46.75932 14.25191 38355 ft 446 kts 304°
2026-05-01 13:29 46.81873 14.09291 38366 ft 447 kts 303°
2026-05-01 13:31 46.90465 13.85132 38336 ft 446 kts 303°
2026-05-01 13:32 46.97589 13.65015 38346 ft 445 kts 302°
2026-05-01 13:33 47.04673 13.44908 38330 ft 445 kts 302°
2026-05-01 13:34 47.10321 13.28764 38336 ft 445 kts 302°
2026-05-01 13:35 47.14537 13.16643 38316 ft 443 kts 301°
2026-05-01 13:36 47.18730 13.04520 38319 ft 444 kts 301°
2026-05-01 13:36 47.22913 12.92368 38316 ft 443 kts 301°
2026-05-01 13:37 47.25697 12.84259 38315 ft 443 kts 301°
2026-05-01 13:37 47.28469 12.76163 38326 ft 442 kts 301°
2026-05-01 13:38 47.32596 12.64022 38313 ft 442 kts 301°
2026-05-01 13:39 47.35329 12.55957 38324 ft 442 kts 300°
2026-05-01 13:39 47.38094 12.47785 38318 ft 442 kts 300°
2026-05-01 13:40 47.40837 12.39670 38334 ft 442 kts 300°
2026-05-01 13:40 47.43568 12.31541 38337 ft 442 kts 300°
2026-05-01 13:41 47.46293 12.23400 38336 ft 442 kts 300°
2026-05-01 13:41 47.48997 12.15306 38336 ft 442 kts 300°
2026-05-01 13:42 47.51711 12.07145 38334 ft 442 kts 300°
2026-05-01 13:42 47.54050 11.98715 38337 ft 447 kts 287°
2026-05-01 13:43 47.55279 11.89679 38335 ft 447 kts 284°
2026-05-01 13:43 47.56462 11.80668 38336 ft 448 kts 284°
2026-05-01 13:44 47.57651 11.71546 38317 ft 448 kts 284°
2026-05-01 13:44 47.58832 11.62490 38320 ft 447 kts 284°
2026-05-01 13:45 47.59994 11.53473 38321 ft 448 kts 284°
2026-05-01 13:45 47.61157 11.44405 38322 ft 448 kts 284°
2026-05-01 13:46 47.62312 11.35326 38305 ft 447 kts 284°
2026-05-01 13:46 47.63461 11.26269 38331 ft 447 kts 284°
2026-05-01 13:47 47.64600 11.17210 38334 ft 447 kts 283°
2026-05-01 13:47 47.65721 11.08218 38338 ft 446 kts 283°
2026-05-01 13:48 47.66848 10.99170 38334 ft 446 kts 283°
2026-05-01 13:48 47.67963 10.90121 38328 ft 445 kts 283°
2026-05-01 13:49 47.69066 10.81076 38341 ft 445 kts 283°
2026-05-01 13:49 47.70160 10.72030 38329 ft 445 kts 283°
2026-05-01 13:49 47.70710 10.67495 37470 ft 450 kts 283°
2026-05-01 13:50 47.71273 10.62878 36302 ft 458 kts 283°
2026-05-01 13:50 47.71842 10.58191 35245 ft 464 kts 283°
2026-05-01 13:50 47.72413 10.53446 34183 ft 468 kts 282°
2026-05-01 13:50 47.72983 10.48673 33018 ft 471 kts 282°
2026-05-01 13:51 47.73548 10.43887 32074 ft 470 kts 282°
2026-05-01 13:51 47.74105 10.39127 31355 ft 465 kts 282°
2026-05-01 13:51 47.74423 10.35993 30933 ft 462 kts 278°
2026-05-01 13:51 47.74501 10.31237 30262 ft 459 kts 270°
2026-05-01 13:52 47.74382 10.26522 29580 ft 453 kts 270°
2026-05-01 13:52 47.74274 10.21880 28969 ft 447 kts 270°
2026-05-01 13:52 47.74175 10.17304 28355 ft 441 kts 270°
2026-05-01 13:52 47.74080 10.12767 27740 ft 436 kts 270°
2026-05-01 13:53 47.73981 10.08301 27144 ft 431 kts 270°
2026-05-01 13:53 47.73764 9.99487 26006 ft 422 kts 270°
2026-05-01 13:53 47.73653 9.95144 25449 ft 418 kts 270°
2026-05-01 13:54 47.73544 9.90845 24916 ft 414 kts 270°
2026-05-01 13:54 47.73438 9.86583 24398 ft 410 kts 270°
2026-05-01 13:54 47.73334 9.82430 23904 ft 407 kts 270°
2026-05-01 13:54 47.73227 9.78248 23354 ft 403 kts 269°
2026-05-01 13:55 47.73118 9.74116 22880 ft 398 kts 269°
2026-05-01 13:55 47.73007 9.70030 22394 ft 394 kts 269°
2026-05-01 13:55 47.72896 9.65981 21920 ft 387 kts 269°
2026-05-01 13:55 47.72786 9.62024 21445 ft 381 kts 269°
2026-05-01 13:56 47.72678 9.58137 20973 ft 373 kts 269°
2026-05-01 13:56 47.72569 9.54294 20496 ft 371 kts 268°
2026-05-01 13:56 47.72459 9.50474 20001 ft 370 kts 268°
2026-05-01 13:56 47.72243 9.46664 19510 ft 369 kts 260°
2026-05-01 13:57 47.71562 9.42998 19000 ft 370 kts 248°
2026-05-01 13:57 47.70404 9.39604 18498 ft 369 kts 236°
2026-05-01 13:57 47.68872 9.36606 17974 ft 368 kts 230°
2026-05-01 13:57 47.67259 9.33679 17483 ft 365 kts 230°
2026-05-01 13:58 47.65655 9.30762 16996 ft 363 kts 230°
2026-05-01 13:58 47.64063 9.27863 16513 ft 362 kts 230°
2026-05-01 13:58 47.62477 9.24976 16034 ft 360 kts 230°
2026-05-01 13:58 47.60915 9.22106 15557 ft 355 kts 233°
2026-05-01 13:59 47.59666 9.18994 15087 ft 350 kts 245°
2026-05-01 13:59 47.58882 9.15608 14627 ft 346 kts 257°
2026-05-01 13:59 47.58437 9.12102 14157 ft 346 kts 259°
2026-05-01 13:59 47.58004 9.08598 13646 ft 346 kts 259°
2026-05-01 14:00 47.57566 9.05101 13160 ft 344 kts 258°
2026-05-01 14:00 47.57164 9.01623 12678 ft 344 kts 264°
2026-05-01 14:00 47.57301 8.98094 12195 ft 342 kts 277°
2026-05-01 14:00 47.57657 8.94619 11704 ft 341 kts 278°
2026-05-01 14:01 47.58046 8.91168 11248 ft 339 kts 278°
2026-05-01 14:01 47.58444 8.87735 10785 ft 337 kts 279°
2026-05-01 14:01 47.58843 8.84324 10393 ft 333 kts 278°
2026-05-01 14:01 47.59239 8.81013 10287 ft 319 kts 279°
2026-05-01 14:02 47.59614 8.77859 10298 ft 303 kts 279°
2026-05-01 14:02 47.59972 8.74851 10300 ft 298 kts 278°
2026-05-01 14:02 47.60335 8.71831 10005 ft 297 kts 278°
2026-05-01 14:02 47.60700 8.68833 9314 ft 294 kts 279°
2026-05-01 14:03 47.61052 8.65859 8621 ft 291 kts 278°
2026-05-01 14:03 47.61403 8.62915 7943 ft 288 kts 279°
2026-05-01 14:03 47.61735 8.60018 7279 ft 283 kts 279°
2026-05-01 14:03 47.62051 8.57152 6629 ft 280 kts 279°
2026-05-01 14:04 47.62408 8.54350 6088 ft 274 kts 284°
2026-05-01 14:04 47.63090 8.51744 5698 ft 270 kts 301°
2026-05-01 14:04 47.64117 8.49439 5394 ft 265 kts 305°
2026-05-01 14:04 47.65161 8.47246 5149 ft 257 kts 306°
2026-05-01 14:05 47.66174 8.45125 5011 ft 245 kts 306°
2026-05-01 14:05 47.67123 8.43134 5006 ft 227 kts 305°
2026-05-01 14:05 47.67973 8.41229 5004 ft 219 kts 295°
2026-05-01 14:05 47.68308 8.39100 4999 ft 206 kts 268°
2026-05-01 14:06 47.67992 8.37108 4962 ft 201 kts 244°
2026-05-01 14:06 47.67210 8.35417 4805 ft 199 kts 224°
2026-05-01 14:06 47.66095 8.34221 4649 ft 198 kts 205°
2026-05-01 14:06 47.64779 8.33651 4502 ft 197 kts 185°
2026-05-01 14:07 47.63421 8.33766 4348 ft 196 kts 165°
2026-05-01 14:07 47.62174 8.34555 4201 ft 195 kts 145°
2026-05-01 14:07 47.61147 8.35858 4097 ft 194 kts 136°
2026-05-01 14:08 47.59169 8.38581 4009 ft 194 kts 136°
2026-05-01 14:08 47.58221 8.39883 4013 ft 178 kts 136°
2026-05-01 14:08 47.57321 8.41119 3827 ft 176 kts 135°
2026-05-01 14:08 47.56438 8.42332 3616 ft 172 kts 135°
2026-05-01 14:09 47.55561 8.43540 3425 ft 173 kts 135°
2026-05-01 14:09 47.54677 8.44755 3125 ft 171 kts 135°
2026-05-01 14:09 47.53842 8.45901 2918 ft 155 kts 136°
2026-05-01 14:09 47.53084 8.46937 2762 ft 145 kts 135°
2026-05-01 14:10 47.52360 8.47926 2535 ft 140 kts 135°
2026-05-01 14:10 47.51651 8.48895 2378 ft 139 kts 136°
2026-05-01 14:10 47.50946 8.49862 2213 ft 137 kts 133°
2026-05-01 14:10 47.50250 8.50816 1981 ft 136 kts 133°
2026-05-01 14:11 47.49568 8.51752 1808 ft 136 kts 135°
2026-05-01 14:11 47.48178 8.53644 1439 ft 136 kts 134°
2026-05-01 14:11 47.47555 8.54504 1394 ft 103 kts 137°
2026-05-01 14:12 47.47135 8.55073 1388 ft 70 kts 137°
2026-05-01 14:12 47.46810 8.55518 1397 ft 58 kts 137°
2026-05-01 14:12 47.46575 8.55831 1397 ft 32 kts 145°
2026-05-01 14:12 47.46385 8.55956 1403 ft 22 kts 167°
2026-05-01 14:13 47.46259 8.55995 1408 ft 10 kts 168°
2026-05-01 14:13 47.46218 8.56003 1409 ft 8 kts 175°
2026-05-01 14:13 47.46136 8.55996 1407 ft 9 kts 185°
2026-05-01 14:13 47.46059 8.55984 1407 ft 16 kts 186°
2026-05-01 14:14 47.45937 8.55953 1409 ft 18 kts 198°
2026-05-01 14:14 47.45858 8.55911 1412 ft 9 kts 200°
2026-05-01 14:14 47.45835 8.55898 1410 ft 0 kts 199°
2026-05-01 14:15 47.45789 8.55880 1410 ft 10 kts 189°
2026-05-01 14:15 47.45719 8.55868 1409 ft 12 kts 186°
2026-05-01 14:15 47.45645 8.55825 1414 ft 12 kts 246°
2026-05-01 14:15 47.45652 8.55662 1405 ft 19 kts 275°
2026-05-01 14:16 47.45668 8.55447 1401 ft 23 kts 275°
2026-05-01 14:16 47.45679 8.55245 1401 ft 12 kts 263°
2026-05-01 14:16 47.45606 8.55229 1403 ft 14 kts 155°
2026-05-01 14:16 47.45515 8.55291 1403 ft 15 kts 155°
2026-05-01 14:17 47.45418 8.55358 1401 ft 16 kts 155°
2026-05-01 14:17 47.45343 8.55412 1403 ft 6 kts 148°
2026-05-01 14:17 47.45327 8.55431 1408 ft 1 kts 136°
2026-05-01 14:17 47.45320 8.55448 1404 ft 4 kts 118°
2026-05-01 14:18 47.45297 8.55505 1410 ft 9 kts 123°
2026-05-01 14:18 47.45275 8.55587 1407 ft 8 kts 97°
2026-05-01 14:18 47.45268 8.55692 1407 ft 12 kts 99°
2026-05-01 14:18 47.45226 8.55719 1412 ft 10 kts 179°
2026-05-01 14:19 47.45193 8.55714 1409 ft 1 kts 187°
2026-05-01 14:19 47.45184 8.55713 1407 ft 0 kts 186°